[[{"header":{"parameterUnit":"m.s-1","parameterCategory":2,"la1":30.2992,"la2":30.254,"lo1":-89.0895,"lo2":-89.0443,"dy":0.0025,"dx":0.0025,"nx":19,"ny":19,"refTime":"2026-05-18T21:00:00:Z","depth":"0","parameterNumber":2,"parameterNumberName":"U-component_of_CURRENTS"},"data":[0,0,0,-0.3589,-0.3592,-0.3702,-0.3702,-0.3727,-0.3727,0,0,0,0,0,0,0,0,0,0,0,-0.3535,-0.3536,-0.3589,-0.3592,-0.3702,-0.3702,-0.3727,-0.3727,0,0,0,0,0,0,0,0,0,0,0,-0.3535,-0.3536,-0.3537,-0.3593,-0.3702,-0.3702,-0.3727,-0.3668,0,0,0,0,0,0,0,0,0,0,-0.3574,-0.3526,-0.3536,-0.3537,-0.3593,-0.3702,-0.3702,-0.3666,-0.3672,-0.365,0,-0.3674,0,-0.3714,-0.3728,-0.3728,0,0,0,-0.3574,-0.3522,-0.358,-0.3537,-0.3595,-0.3702,-0.3647,-0.367,-0.3676,-0.3656,-0.3675,-0.3678,-0.3715,-0.3728,-0.3728,-0.3826,-0.3827,0,0,-0.3567,-0.3525,-0.3576,-0.3584,-0.3631,-0.3644,-0.3651,-0.3675,-0.3664,-0.3675,-0.3679,-0.3715,-0.3728,-0.3728,-0.3825,-0.3826,0,0,0,-0.3563,-0.352,-0.3578,-0.3581,-0.3618,-0.3647,-0.3655,-0.3663,-0.3691,-0.368,-0.3716,-0.3728,-0.3728,-0.3824,-0.3825,-0.3903,0,0,0,-0.3558,-0.352,-0.3575,-0.3547,-0.3619,-0.3654,-0.3642,-0.3689,-0.3694,-0.3715,-0.3728,-0.3728,-0.3823,-0.3825,-0.3899,-0.3942,0,0,0,-0.3529,-0.3516,-0.3538,-0.3545,-0.3607,-0.3655,-0.3683,-0.3691,-0.3716,-0.3728,-0.3728,-0.3822,-0.3824,-0.3895,-0.3935,-0.3966,0,0,0,-0.3468,-0.3525,-0.3536,-0.361,-0.3606,-0.3729,-0.3684,-0.3737,-0.3753,-0.3728,-0.3823,-0.3825,-0.3894,-0.3931,-0.3963,-0.3793,-0.3798,0,0,-0.3518,-0.3529,-0.3581,-0.3596,-0.372,-0.3712,-0.3827,-0.381,-0.3781,-0.38,-0.3804,-0.39,-0.3935,-0.3966,-0.393,-0.393,0,0,0,-0.3585,-0.362,-0.3659,-0.3729,-0.3805,-0.3879,-0.388,-0.3888,-0.3907,-0.3807,-0.3927,-0.3947,-0.3963,-0.3853,-0.3855,-0.3521,-0.3836,-0.3836,-0.3836,-0.3569,-0.3647,-0.3742,-0.3844,-0.3913,-0.3989,-0.4044,-0.4055,-0.3992,-0.4017,-0.403,-0.4135,-0.4021,-0.402,-0.368,-0.4046,-0.4047,-0.4047,-0.4047,-0.3657,-0.3721,-0.3812,-0.3929,-0.4014,-0.4096,-0.4192,-0.4173,-0.4215,-0.4146,-0.4157,-0.3966,-0.4025,-0.3661,-0.4053,-0.4052,-0.4051,-0.405,-0.405,-0.364,-0.3689,-0.3762,-0.3921,-0.4043,-0.4145,-0.425,-0.4289,-0.4286,-0.4319,-0.4141,-0.4136,-0.3797,-0.4288,-0.4289,-0.4289,-0.4289,-0.429,-0.429,-0.3582,-0.3673,-0.3748,-0.3912,-0.3998,-0.4121,-0.426,-0.4297,-0.4271,-0.4227,-0.4224,-0.3784,-0.4208,-0.4176,-0.4296,-0.4295,-0.4294,-0.4293,-0.4293,-0.3563,-0.3571,-0.3693,-0.3779,-0.398,-0.3984,-0.4182,-0.4157,-0.4213,-0.4152,-0.3702,-0.417,-0.4124,-0.4119,-0.4084,-0.4174,-0.4174,-0.4174,-0.4174,-0.3488,-0.3527,-0.3611,-0.372,-0.3859,-0.3918,-0.3787,-0.3765,-0.3616,-0.345,-0.3468,-0.3317,-0.3336,-0.3235,-0.3251,-0.3195,-0.3057,-0.3056,-0.3054,-0.3438,-0.3486,-0.3485,-0.3607,-0.3766,-0.3752,-0.3436,-0.3037,-0.2895,-0.298,-0.3041,-0.3088,-0.2841,-0.2898,-0.272,-0.2769,-0.2672,0,0]},{"header":{"parameterUnit":"m.s-1","parameterCategory":2,"la1":30.2992,"la2":30.254,"lo1":-89.0895,"lo2":-89.0443,"dy":0.0025,"dx":0.0025,"nx":19,"ny":19,"refTime":"2026-05-18T21:00:00:Z","depth":"0","parameterNumber":3,"parameterNumberName":"V-component_of_CURRENTS"},"data":[0,0,0,-0.0542,-0.0537,-0.0306,-0.0305,-0.0009,-0.0006,0,0,0,0,0,0,0,0,0,0,0,-0.0633,-0.0632,-0.0542,-0.0537,-0.0307,-0.0305,-0.0009,-0.0006,0,0,0,0,0,0,0,0,0,0,0,-0.0633,-0.0632,-0.0631,-0.0536,-0.0307,-0.0305,-0.001,-0.0182,0,0,0,0,0,0,0,0,0,0,-0.0405,-0.0495,-0.0632,-0.0631,-0.0535,-0.0307,-0.0305,-0.019,-0.0171,-0.0117,0,-0.0092,0,-0.004,0.0012,0.0013,0,0,0,-0.0525,-0.0511,-0.0446,-0.0631,-0.0533,-0.0307,-0.0407,-0.0179,-0.0158,-0.0092,-0.0087,-0.0076,-0.0035,0.0014,0.0016,0.0263,0.0263,0,0,-0.0538,-0.0586,-0.0461,-0.0434,-0.0486,-0.0415,-0.04,-0.0166,-0.0151,-0.0086,-0.0068,-0.0031,0.0016,0.0018,0.0262,0.0263,0,0,0,-0.0582,-0.0595,-0.0536,-0.0446,-0.0403,-0.0408,-0.0392,-0.0161,-0.0141,-0.0065,-0.0027,0.0018,0.0021,0.0262,0.0263,0.0182,0,0,0,-0.059,-0.0621,-0.0542,-0.0567,-0.0408,-0.0279,-0.0393,-0.0158,-0.0129,-0.0029,0.0018,0.0024,0.0261,0.0262,0.0183,0.0085,0,0,0,-0.0641,-0.0626,-0.0604,-0.0571,-0.0474,-0.0282,-0.0247,-0.015,-0.0106,0.0014,0.0025,0.026,0.0262,0.0183,0.0089,0.0006,0,0,0,-0.0692,-0.0673,-0.0605,-0.0562,-0.0477,-0.0341,-0.0248,-0.0135,-0.0041,0.0019,0.0261,0.0262,0.0183,0.0092,0.0009,-0.0211,-0.0244,0,0,-0.0701,-0.0675,-0.0648,-0.0582,-0.0495,-0.0371,-0.025,-0.0097,0.0005,0.0185,0.0191,0.0182,0.0089,0.0007,-0.0128,-0.0165,0,0,0,-0.0671,-0.0667,-0.0622,-0.0554,-0.0431,-0.0323,-0.0157,-0.0062,0.0102,0.0068,0.0235,0.0178,0.0127,0.0005,-0.0022,0.05,0.0269,0.0269,0.0269,-0.0783,-0.0705,-0.0675,-0.0568,-0.0468,-0.0273,-0.0173,-0.0009,0.0101,0.0166,0.0154,0.0085,-0.004,-0.0066,0.0481,0.0235,0.0235,0.0235,0.0235,-0.0867,-0.0868,-0.075,-0.0704,-0.0552,-0.044,-0.0177,-0.0079,0.0049,0.0154,0.011,-0.0022,-0.0103,0.0492,0.0231,0.0231,0.0232,0.0232,0.0233,-0.0989,-0.0982,-0.0943,-0.0888,-0.0783,-0.0579,-0.0517,-0.0288,-0.0089,-0.0086,-0.0239,-0.024,0.0239,-0.0117,-0.0118,-0.0118,-0.0119,-0.012,-0.012,-0.1155,-0.1106,-0.1172,-0.1085,-0.1068,-0.098,-0.0734,-0.0668,-0.0537,-0.0389,-0.0389,0.0287,-0.0024,-0.0061,-0.0132,-0.013,-0.0128,-0.0127,-0.0126,-0.1329,-0.1328,-0.1436,-0.1462,-0.1424,-0.1445,-0.1215,-0.1143,-0.1032,-0.1035,-0.0073,-0.0534,-0.0552,-0.0529,-0.0576,-0.0778,-0.0778,-0.0778,-0.0778,-0.1489,-0.1483,-0.168,-0.1766,-0.1796,-0.1662,-0.1678,-0.1328,-0.0682,-0.0213,-0.0031,0.0124,0.0127,0.0166,0.0173,0.0149,0.0138,0.014,0.0143,-0.1649,-0.1689,-0.1872,-0.1925,-0.1958,-0.1925,-0.1818,-0.0974,0.0043,0.0254,0.0761,0.0721,0.1038,0.0998,0.1128,0.1096,0.1078,0,0]}],[{"header":{"parameterUnit":"m.s-1","parameterCategory":2,"la1":30.2992,"la2":30.254,"lo1":-89.0895,"lo2":-89.0443,"dy":0.0025,"dx":0.0025,"nx":19,"ny":19,"refTime":"2026-05-18T21:00:00:Z","depth":"2","parameterNumber":2,"parameterNumberName":"U-component_of_CURRENTS"},"data":[0,0,0,-0.3307,-0.3309,-0.3418,-0.3418,-0.3368,-0.3367,0,0,0,0,0,0,0,0,0,0,0,-0.3268,-0.3269,-0.3307,-0.331,-0.3418,-0.3418,-0.3368,-0.3367,0,0,0,0,0,0,0,0,0,0,0,-0.3268,-0.3269,-0.327,-0.331,-0.3418,-0.3418,-0.3368,-0.3333,0,0,0,0,0,0,0,0,0,0,-0.3251,-0.3197,-0.3269,-0.327,-0.3311,-0.3417,-0.3418,-0.3333,-0.3335,-0.3265,0,-0.3291,0,-0.3324,-0.3359,-0.3359,0,0,0,-0.3308,-0.3196,-0.3271,-0.327,-0.3312,-0.3417,-0.3368,-0.3336,-0.3337,-0.3267,-0.3291,-0.329,-0.3323,-0.3359,-0.3358,-0.3273,-0.3273,0,0,-0.3302,-0.3237,-0.3271,-0.3273,-0.3346,-0.3365,-0.3372,-0.3339,-0.331,-0.3291,-0.329,-0.3322,-0.3358,-0.3357,-0.3273,-0.3273,0,0,0,-0.3286,-0.3232,-0.3311,-0.3273,-0.3307,-0.3368,-0.3376,-0.3311,-0.3352,-0.329,-0.3322,-0.3357,-0.3356,-0.3273,-0.3273,-0.336,0,0,0,-0.3282,-0.3225,-0.3308,-0.3263,-0.3309,-0.3324,-0.3348,-0.3355,-0.3353,-0.3322,-0.3357,-0.3355,-0.3273,-0.3273,-0.3358,-0.3395,0,0,0,-0.3262,-0.322,-0.3248,-0.3261,-0.3316,-0.3327,-0.3364,-0.3356,-0.337,-0.3359,-0.3354,-0.3273,-0.3273,-0.3356,-0.3391,-0.3365,0,0,0,-0.3173,-0.3234,-0.3245,-0.3313,-0.3315,-0.3408,-0.3366,-0.3401,-0.34,-0.3357,-0.3273,-0.3273,-0.3356,-0.3389,-0.3364,-0.2866,-0.2833,0,0,-0.322,-0.3236,-0.3289,-0.3305,-0.3388,-0.3393,-0.3431,-0.3408,-0.3363,-0.327,-0.327,-0.3359,-0.3391,-0.3365,-0.2854,-0.2821,0,0,0,-0.3287,-0.3306,-0.334,-0.338,-0.3446,-0.346,-0.3444,-0.3423,-0.3382,-0.3362,-0.333,-0.3346,-0.3328,-0.3023,-0.2997,-0.3272,-0.3272,-0.3272,-0.3272,-0.3168,-0.3267,-0.3327,-0.3425,-0.3463,-0.3487,-0.3499,-0.3449,-0.3404,-0.3392,-0.3396,-0.3408,-0.3083,-0.3058,-0.3371,-0.3371,-0.3372,-0.3372,-0.3372,-0.319,-0.3225,-0.331,-0.342,-0.3455,-0.3479,-0.35,-0.3492,-0.346,-0.343,-0.3407,-0.3103,-0.3034,-0.3378,-0.3377,-0.3376,-0.3376,-0.3375,-0.3375,-0.3072,-0.3117,-0.321,-0.3343,-0.3408,-0.3481,-0.3424,-0.3516,-0.3517,-0.3533,-0.3132,-0.3123,-0.3454,-0.3506,-0.3506,-0.3506,-0.3506,-0.3506,-0.3506,-0.2914,-0.3023,-0.308,-0.3267,-0.3284,-0.3325,-0.3395,-0.3311,-0.3209,-0.3166,-0.316,-0.3452,-0.3447,-0.3458,-0.3507,-0.3507,-0.3507,-0.3506,-0.3506,-0.2776,-0.2845,-0.2917,-0.2951,-0.2969,-0.2822,-0.2973,-0.2749,-0.2742,-0.2613,-0.2912,-0.2926,-0.2836,-0.2848,-0.2841,-0.2728,-0.2728,-0.2728,-0.2728,-0.2624,-0.2693,-0.2657,-0.2598,-0.2486,-0.252,-0.2143,-0.2086,-0.2201,-0.2221,-0.2246,-0.2112,-0.2149,-0.2019,-0.2051,-0.2028,-0.1704,-0.1703,-0.1703,-0.2489,-0.2537,-0.2373,-0.237,-0.221,-0.2038,-0.1752,-0.1617,-0.1562,-0.1687,-0.2326,-0.2609,-0.2467,-0.2506,-0.235,-0.2384,-0.2365,0,0]},{"header":{"parameterUnit":"m.s-1","parameterCategory":2,"la1":30.2992,"la2":30.254,"lo1":-89.0895,"lo2":-89.0443,"dy":0.0025,"dx":0.0025,"nx":19,"ny":19,"refTime":"2026-05-18T21:00:00:Z","depth":"2","parameterNumber":3,"parameterNumberName":"V-component_of_CURRENTS"},"data":[0,0,0,-0.0022,-0.002,0.017,0.0172,0.0546,0.0549,0,0,0,0,0,0,0,0,0,0,0,-0.0077,-0.0077,-0.0022,-0.0019,0.017,0.0172,0.0545,0.0549,0,0,0,0,0,0,0,0,0,0,0,-0.0077,-0.0077,-0.0077,-0.0019,0.017,0.0172,0.0545,0.0384,0,0,0,0,0,0,0,0,0,0,0.0189,0.0085,-0.0077,-0.0077,-0.0018,0.017,0.0172,0.0375,0.0394,0.0478,0,0.0471,0,0.049,0.0571,0.0572,0,0,0,0.0042,0.0069,0.0118,-0.0077,-0.0018,0.0169,0.0102,0.0385,0.0406,0.0503,0.0476,0.0489,0.0496,0.0573,0.0575,0.0809,0.0809,0,0,0.0032,-0.0023,0.0103,0.013,-0.0012,0.0096,0.0107,0.0397,0.0404,0.0477,0.0497,0.0502,0.0576,0.0578,0.0809,0.0809,0,0,0,-0.004,-0.0031,0.0011,0.0116,0.0124,0.0099,0.0113,0.0392,0.0404,0.0501,0.0507,0.0577,0.0582,0.0809,0.0809,0.0656,0,0,0,-0.0043,-0.0077,0.0005,-0.0022,0.0116,0.0237,0.0102,0.0385,0.0417,0.0505,0.0578,0.0585,0.0809,0.0809,0.066,0.062,0,0,0,-0.0078,-0.008,-0.0073,-0.0027,0.0026,0.0232,0.0264,0.0393,0.0418,0.0573,0.0586,0.0809,0.0809,0.0664,0.0626,0.0666,0,0,0,-0.0115,-0.0168,-0.0075,-0.0113,0.0023,0.0114,0.0262,0.0363,0.0479,0.0579,0.0809,0.0809,0.0665,0.063,0.0668,0.0525,0.0503,0,0,-0.0212,-0.0181,-0.02,-0.0114,-0.0088,0.0095,0.0176,0.0383,0.0519,0.0734,0.0739,0.0659,0.0627,0.0666,0.0534,0.051,0,0,0,-0.0249,-0.0274,-0.0245,-0.0205,-0.0087,0.0062,0.0247,0.0368,0.056,0.0576,0.0705,0.0692,0.072,0.064,0.0623,0.0809,0.0809,0.0809,0.0809,-0.0444,-0.0371,-0.0383,-0.0276,-0.0189,0.005,0.0193,0.0402,0.0505,0.0565,0.0599,0.0571,0.0481,0.0467,0.0625,0.0624,0.0624,0.0623,0.0623,-0.0608,-0.0613,-0.0483,-0.0482,-0.0274,-0.0174,0.0155,0.027,0.0485,0.0544,0.0579,0.0522,0.0438,0.0612,0.0614,0.0615,0.0617,0.0617,0.0618,-0.0747,-0.0733,-0.072,-0.0663,-0.0521,-0.0291,-0.0136,0.0139,0.035,0.04,0.0388,0.0389,0.0502,0.0412,0.0412,0.0412,0.0412,0.0412,0.0412,-0.089,-0.0861,-0.0906,-0.0825,-0.0759,-0.0612,-0.0276,-0.0166,0.0072,0.0252,0.0253,0.0503,0.051,0.0495,0.0411,0.0411,0.0411,0.0411,0.0411,-0.1058,-0.1053,-0.1107,-0.1087,-0.0942,-0.0847,-0.0591,-0.0382,-0.0203,-0.0128,0.0213,0.0218,0.0281,0.0294,0.0278,0.0144,0.0144,0.0144,0.0143,-0.1174,-0.1178,-0.1219,-0.1179,-0.1114,-0.0923,-0.0838,-0.0517,-0.0161,0.0078,0.0082,0.0058,0.0067,0.0122,0.014,0.0124,-0.0051,-0.0051,-0.0051,-0.1276,-0.1269,-0.1295,-0.1243,-0.1145,-0.1058,-0.09,-0.0466,-0.0072,-0.0046,0.0174,0.0106,0.0077,0.0091,0.0187,0.021,0.0189,0,0]}],[{"header":{"parameterUnit":"m.s-1","parameterCategory":2,"la1":30.2992,"la2":30.254,"lo1":-89.0895,"lo2":-89.0443,"dy":0.0025,"dx":0.0025,"nx":19,"ny":19,"refTime":"2026-05-18T21:00:00:Z","depth":"4","parameterNumber":2,"parameterNumberName":"U-component_of_CURRENTS"},"data":[0,0,0,-0.1324,-0.1328,-0.1566,-0.1567,-0.1794,-0.1796,0,0,0,0,0,0,0,0,0,0,0,-0.1219,-0.122,-0.1323,-0.1329,-0.1566,-0.1567,-0.1793,-0.1796,0,0,0,0,0,0,0,0,0,0,0,-0.1218,-0.122,-0.1221,-0.133,-0.1566,-0.1567,-0.1793,-0.1634,0,0,0,0,0,0,0,0,0,0,-0.1413,-0.1355,-0.1219,-0.1221,-0.1331,-0.1565,-0.1567,-0.1627,-0.1644,-0.1663,0,-0.1688,0,-0.1755,-0.1809,-0.1809,0,0,0,-0.1332,-0.1341,-0.138,-0.1221,-0.1333,-0.1565,-0.146,-0.1637,-0.1656,-0.1685,-0.1692,-0.1702,-0.1759,-0.181,-0.1811,-0.1893,-0.1892,0,0,-0.1319,-0.1291,-0.1367,-0.1391,-0.1379,-0.1452,-0.1467,-0.1649,-0.1674,-0.1693,-0.1708,-0.1763,-0.1811,-0.1813,-0.1893,-0.1892,0,0,0,-0.1279,-0.1282,-0.1319,-0.138,-0.1435,-0.1459,-0.1476,-0.1667,-0.1672,-0.1711,-0.1765,-0.1812,-0.1815,-0.1894,-0.1893,-0.1923,0,0,0,-0.1272,-0.1259,-0.1313,-0.1303,-0.1431,-0.1574,-0.1489,-0.1658,-0.1683,-0.1764,-0.1812,-0.1817,-0.1894,-0.1893,-0.1924,-0.1914,0,0,0,-0.1211,-0.1255,-0.127,-0.13,-0.1402,-0.1572,-0.159,-0.1666,-0.1715,-0.181,-0.1817,-0.1895,-0.1893,-0.1924,-0.1915,-0.1946,0,0,0,-0.119,-0.1194,-0.1269,-0.1319,-0.1399,-0.1506,-0.159,-0.1706,-0.1784,-0.1813,-0.1894,-0.1893,-0.1925,-0.1916,-0.1946,-0.1748,0,0,0,-0.1169,-0.1192,-0.1222,-0.1295,-0.1371,-0.1474,-0.1579,-0.1724,-0.1761,-0.1832,-0.1835,-0.1924,-0.1916,-0.1946,-0.1668,0,0,0,0,-0.12,-0.1207,-0.1246,-0.1329,-0.1426,-0.1527,-0.167,-0.1729,-0.1825,-0.1802,-0.1887,-0.1879,-0.1899,-0.1781,-0.1886,-0.1886,-0.1887,-0.1887,-0.1887,-0.1123,-0.1194,-0.1236,-0.1326,-0.1411,-0.1579,-0.1662,-0.1753,-0.1815,-0.1844,-0.1878,-0.188,-0.1752,-0.1859,-0.1859,-0.1859,-0.1859,-0.186,-0.186,-0.1057,-0.1082,-0.1202,-0.1261,-0.1399,-0.1503,-0.1676,-0.1751,-0.1859,-0.1872,-0.1891,-0.1786,-0.1862,-0.1861,-0.1861,-0.1861,-0.1861,-0.186,-0.186,-0.099,-0.1002,-0.107,-0.1171,-0.1298,-0.1468,-0.1588,-0.173,-0.1847,-0.1887,-0.1779,-0.1894,-0.1924,-0.1917,-0.1917,-0.1917,-0.1917,-0.1917,-0.1918,-0.0879,-0.0937,-0.0973,-0.1087,-0.1159,-0.131,-0.155,-0.1643,-0.179,-0.1761,-0.19,-0.19,-0.1898,-0.1925,-0.1919,-0.1919,-0.1918,-0.1918,-0.1918,-0.0717,-0.0821,-0.0822,-0.0884,-0.1056,-0.116,-0.1388,-0.1545,-0.1628,-0.1628,-0.1701,-0.1711,-0.1684,-0.1687,-0.1707,-0.1636,-0.1634,-0.1631,0,-0.0622,-0.0675,-0.0708,-0.0782,-0.0903,-0.1086,-0.1184,-0.1332,-0.1468,-0.1433,-0.1622,-0.17,-0.1708,-0.1674,-0.1673,-0.1691,0,0,0,-0.0481,-0.0538,-0.0531,-0.0709,-0.0845,-0.1048,-0.1226,-0.1248,-0.1432,-0.1439,-0.1567,-0.1584,-0.1748,-0.1923,-0.1906,-0.1904,-0.1947,0,0]},{"header":{"parameterUnit":"m.s-1","parameterCategory":2,"la1":30.2992,"la2":30.254,"lo1":-89.0895,"lo2":-89.0443,"dy":0.0025,"dx":0.0025,"nx":19,"ny":19,"refTime":"2026-05-18T21:00:00:Z","depth":"4","parameterNumber":3,"parameterNumberName":"V-component_of_CURRENTS"},"data":[0,0,0,-0.0471,-0.0472,-0.0473,-0.0473,-0.0415,-0.0414,0,0,0,0,0,0,0,0,0,0,0,-0.047,-0.047,-0.0471,-0.0472,-0.0473,-0.0473,-0.0415,-0.0414,0,0,0,0,0,0,0,0,0,0,0,-0.047,-0.047,-0.0471,-0.0472,-0.0473,-0.0473,-0.0415,-0.0426,0,0,0,0,0,0,0,0,0,0,-0.043,-0.0444,-0.047,-0.0471,-0.0472,-0.0473,-0.0473,-0.0427,-0.0425,-0.04,0,-0.0411,0,-0.0415,-0.041,-0.041,0,0,0,-0.0459,-0.0446,-0.0447,-0.0471,-0.0472,-0.0473,-0.0469,-0.0426,-0.0424,-0.0397,-0.041,-0.0408,-0.0414,-0.0409,-0.0409,-0.0429,-0.043,0,0,-0.0459,-0.0465,-0.0449,-0.0446,-0.0485,-0.0469,-0.0469,-0.0425,-0.0426,-0.041,-0.0407,-0.0413,-0.0409,-0.0408,-0.0428,-0.0429,0,0,0,-0.0467,-0.0465,-0.0468,-0.0448,-0.0456,-0.047,-0.047,-0.0428,-0.043,-0.0407,-0.0413,-0.0409,-0.0408,-0.0428,-0.0429,-0.0523,0,0,0,-0.0467,-0.047,-0.0468,-0.047,-0.0457,-0.0451,-0.0474,-0.0433,-0.0429,-0.0413,-0.0409,-0.0407,-0.0427,-0.0428,-0.0519,-0.0544,0,0,0,-0.0468,-0.047,-0.0475,-0.0471,-0.0477,-0.0452,-0.0451,-0.0433,-0.0432,-0.0409,-0.0407,-0.0426,-0.0428,-0.0515,-0.0538,-0.0464,0,0,0,-0.0466,-0.0511,-0.0475,-0.0534,-0.0478,-0.0534,-0.0452,-0.0477,-0.0471,-0.0408,-0.0427,-0.0429,-0.0514,-0.0534,-0.0462,-0.035,0,0,0,-0.0529,-0.0519,-0.0558,-0.0527,-0.0591,-0.0532,-0.0591,-0.0537,-0.0481,-0.0433,-0.0433,-0.052,-0.0537,-0.0463,-0.0449,0,0,0,0,-0.0584,-0.0604,-0.0621,-0.0645,-0.0662,-0.0666,-0.0623,-0.0588,-0.0549,-0.0485,-0.0527,-0.0535,-0.0484,-0.0416,-0.0437,-0.0436,-0.0436,-0.0436,-0.0436,-0.0636,-0.0658,-0.0722,-0.0745,-0.077,-0.0758,-0.0745,-0.0685,-0.0631,-0.0627,-0.0618,-0.0636,-0.0575,-0.0632,-0.0633,-0.0633,-0.0634,-0.0634,-0.0634,-0.0718,-0.0754,-0.0782,-0.0856,-0.086,-0.0897,-0.0844,-0.08,-0.0719,-0.07,-0.0645,-0.0533,-0.0644,-0.0642,-0.064,-0.0639,-0.0638,-0.0638,-0.0637,-0.0731,-0.0756,-0.0814,-0.09,-0.0958,-0.0965,-0.0932,-0.0894,-0.0789,-0.0767,-0.0596,-0.0656,-0.0633,-0.0713,-0.0713,-0.0712,-0.0712,-0.0712,-0.0712,-0.0716,-0.0776,-0.0851,-0.0942,-0.0987,-0.1013,-0.0974,-0.0886,-0.0801,-0.0668,-0.0763,-0.066,-0.0658,-0.0635,-0.071,-0.071,-0.071,-0.0711,-0.0711,-0.0716,-0.0767,-0.0847,-0.0911,-0.1006,-0.1004,-0.0987,-0.0776,-0.0655,-0.0518,-0.0572,-0.0579,-0.0503,-0.0503,-0.0472,-0.0501,-0.05,-0.0498,0,-0.0708,-0.0745,-0.0854,-0.0929,-0.0965,-0.0994,-0.0809,-0.0701,-0.0566,-0.0559,-0.0664,-0.0736,-0.0737,-0.0665,-0.0662,-0.0634,0,0,0,-0.0703,-0.0737,-0.08,-0.0908,-0.0955,-0.0817,-0.0755,-0.0654,-0.0613,-0.0434,-0.0467,-0.0475,-0.0651,-0.0702,-0.0601,-0.0598,-0.0554,0,0]}]]